Tracking 20719 objects as of 25-May-2020
HD Live streaming from Space Station
objects crossing your sky now

GALAXY 23 (TELSTAR 13)

Track GALAXY 23 (TELSTAR 13) now!
GALAXY 23 (TELSTAR 13) is classified as:


NORAD ID: 27854
Int'l Code: 2003-034A
Perigee: 35,779.2 km
Apogee: 35,806.2 km
Inclination: 0.0 °
Period: 1,436.0 minutes
Semi major axis: 42163 km
RCS: 36.5219 m2 (large)
Launch date: August 8, 2003
Source: United States (US)
Launch site: SEA LAUNCH (SEAL)

24 C-band, 2 Ka-band, 32 Ku-band; additional C-band payload owned and operated by Loral Skynet.
aabbcc
Your satellite tracking list
Your tracking list is empty




NASA's NSSDC Master Catalog

Two Line Element Set (TLE):
1 27854U 03034A   20144.28999163  .00000024  00000-0  00000+0 0  9999
2 27854   0.0244 284.5023 0003193 139.6246 160.6371  1.00275479 66325
Source of the keplerian elements: AFSPC